Weather past 2 weeks in Cayenne, French Guiana

Now
75 °F

Passing clouds.


Feels Like: 73 °F
Forecast: 77 / 85 °F
Wind: No wind

Location: Cayenne / Rochambeau

Current Time: Aug 1, 2015 at 11:39:05 PM

Latest Report: Aug 1, 2015 at 11:00 PM


Visibility: N/A

Pressure: 29.95 "Hg

Humidity: 100%

Dew point: 75 °F

Location of CayenneLocation

Historic Weather in Cayenne — Graph

°F

Cayenne temperature yesterday

Maximum temperature yesterday: 88 °F (at 11:30 AM)
Minimum temperature yesterday: 73 °F (at 5:00 AM)
Average temperature yesterday: 80 °F

Past Weeks' High & Low Weather Summary

 TemperatureHumidityPressure
High91 °F (Jul 29, 1:00 PM)100% (Jul 17, 10:00 PM)30.04 "Hg (Jul 17, 10:00 PM)
Low72 °F (Jul 19, 6:00 AM)52% (Jul 29, 1:30 PM)29.83 "Hg (Jul 28, 3:00 PM)
Average79 °F87%29.93 "Hg
* Reported Jul 17 10:00 PM — Aug 1 10:30 PM, Cayenne, Weather by CustomWeather, © 2015

Note: Actual official high and low records may vary slightly from our data, if they occured in-between our weather recording intervals... More about our weather records

Advertising

Cayenne weather history for previous 24 hours

 ConditionsComfort  
Time TempWeatherWind HumidityBarometerVisibility
10:30 PM
Sat, Aug 1
75 °FPassing clouds.No wind100%29.92 "HgN/A
10:00 PM75 °FPartly cloudy.No wind100%29.92 "HgN/A
9:30 PM77 °FWarm.No wind94%29.92 "HgN/A
9:00 PM77 °FWarm.No wind94%29.89 "HgN/A
8:30 PM77 °FWarm.No wind94%29.89 "HgN/A
8:00 PM79 °FWarm.No wind89%29.89 "HgN/A
7:00 PM81 °FPartly cloudy.3 mph84%29.86 "HgN/A
6:30 PM82 °FWarm.No wind79%29.86 "HgN/A
6:00 PM84 °FWarm.2 mph79%29.86 "HgN/A
5:30 PM84 °FScattered clouds.2 mph70%29.86 "HgN/A
5:00 PM84 °FWarm.2 mph74%29.86 "HgN/A
4:30 PM84 °FWarm.5 mph74%29.86 "HgN/A
4:00 PM82 °FWarm.8 mph79%29.83 "HgN/A
3:30 PM84 °FScattered clouds.10 mph74%29.83 "HgN/A
3:00 PM86 °FMostly cloudy.10 mph70%29.86 "HgN/A
2:30 PM88 °FBroken clouds.13 mph70%29.86 "HgN/A
2:00 PM88 °FBroken clouds.12 mph70%29.86 "HgN/A
1:30 PM90 °FScattered clouds.3 mph55%29.86 "HgN/A
1:00 PM91 °FPassing clouds.No wind52%29.89 "HgN/A
12:30 PM90 °FScattered clouds.5 mph59%29.92 "HgN/A
12:00 PM90 °FScattered clouds.3 mph59%29.92 "HgN/A
11:30 AM88 °FPartly sunny.6 mph62%29.92 "HgN/A
11:00 AM88 °FBroken clouds.2 mph66%29.92 "HgN/A
10:30 AM86 °FMostly cloudy.5 mph66%29.92 "HgN/A
10:00 AM86 °FPartly sunny.3 mph70%29.92 "HgN/A
9:30 AM84 °FPartly sunny.5 mph74%29.92 "HgN/A
9:00 AM82 °FWarm.No wind79%29.92 "HgN/A
8:30 AM79 °FWarm.No wind89%29.92 "HgN/A
8:00 AM77 °FWarm.1 mph94%29.89 "HgN/A
7:30 AM75 °FMild.No wind100%29.89 "HgN/A
7:00 AM73 °FMild.No wind100%29.89 "HgN/A
6:30 AM73 °FMild.No wind100%29.89 "HgN/A
6:00 AM73 °FMild.No wind94%29.89 "HgN/A
5:30 AM73 °FMild.No wind94%29.89 "HgN/A
5:00 AM73 °FMild.No wind100%29.89 "HgN/A
4:30 AM73 °FMild.No wind100%29.89 "HgN/A
4:00 AM73 °FMild.No wind100%29.89 "HgN/A
3:30 AM73 °FPassing clouds.No wind100%29.89 "HgN/A
3:00 AM73 °FPartly cloudy.No wind100%29.89 "HgN/A
2:30 AM73 °FMild.No wind100%29.92 "HgN/A
2:00 AM73 °FMild.No wind100%29.92 "HgN/A
1:30 AM75 °FMild.No wind94%29.92 "HgN/A
1:00 AM75 °FMild.No wind94%29.92 "HgN/A
12:30 AM75 °FMild.No wind100%29.92 "HgN/A
12:00 AM75 °FMild.No wind100%29.95 "HgN/A
11:30 PM
Fri, Jul 31
75 °FMild.No wind100%29.95 "HgN/A
11:00 PM75 °FMild.No wind100%29.95 "HgN/A
Weather by CustomWeather, © 2015

See weather overviewHow to use our weather pages